Regional Weather Roundup
Issued by NWS

Home | Current Version | Previous Version | Graphics & Text | Print | Product List | Glossary On
Versions: 1 2 3 4 5 6 7 8 9 10 11 12 13 14 15 16 17 18 19 20 21 22 23 24 25 26 27 28 29 30 31 32 33 34 35 36 37 38 39 40 41 42 43 44 45 46 47 48 49 50
000
ASUS44 KMEG 200710
RWRTN
TENNESSEE HOURLY STATE WEATHER ROUNDUP
NATIONAL WEATHER SERVICE MEMPHIS TN
200 AM CDT SAT SEP 20 2014

TNZ002-004-019-021-049-052-054-088>092-200800-
WEST TENNESSEE

CITY           SKY/WX    TMP DP  RH WIND       PRES   REMARKS
MEMPHIS INTL   CLEAR     74  67  78 SE6       30.02S
NWS MEMPHIS      N/A     69 N/A N/A MISG        N/A
JACKSON        CLEAR     63  61  94 CALM      30.03F FOG
DYERSBURG      CLEAR     66  55  68 CALM      30.03F
UNION CITY       N/A     61  61 100 CALM      30.02S VSB 1/2
PARIS          CLEAR     59  57  94 CALM      30.05S
HUNTINGDON     CLEAR     63  62  96 CALM      30.04S
LEXINGTON      PTCLDY    64  64 100 CALM      30.04F
SAVANNAH       CLEAR     66  66 100 CALM      30.06S
$$

TNZ008-025-027-028-033-062-065-066-200800-
NORTH MIDDLE TENNESSEE

CITY           SKY/WX    TMP DP  RH WIND       PRES   REMARKS
NASHVILLE      PTCLDY    72  65  78 S10       30.08R
DICKSON        PTCLDY    70  64  83 S7        30.07R
PORTLAND       CLEAR     66  64  94 S8        30.07R
CLARKSVILLE    CLEAR     63  61  93 CALM      30.05S
LEBANON        PTCLDY    71  62  73 S13       30.06S
SMYRNA         PTCLDY    71  64  78 CALM      30.09R
COOKEVILLE     CLEAR     68  63  83 S6        30.11S
LIVINGSTON     CLEAR     67  60  78 SW6       30.12S
GALLATIN       PTCLDY    67  66  96 CALM      30.09R
CROSSVILLE     CLEAR     67  58  72 S6        30.16F
$$

TNZ061-075-076-078-094-096-097-200800-
SOUTH MIDDLE TENNESSEE

CITY           SKY/WX    TMP DP  RH WIND       PRES   REMARKS
LEWISBURG      CLEAR     71  64  78 S7        30.08R
FAYETTEVILLE   CLEAR     66  61  82 SE9       30.10F
TULLAHOMA      CLEAR     68  61  77 SE6       30.12F
WINCHESTER     PTCLDY    70  63  78 SE14      30.11F
MCMINNVILLE    MOCLDY    72  64  78 VRB6      30.11S
COLUMBIA       MOCLDY    68  68 100 CALM      30.07S
SHELBYVILLE    CLEAR     72  64  78 S5        30.10S
$$

TNZ017-018-042-046-047-200800-
NORTHEAST TENNESSEE

CITY           SKY/WX    TMP DP  RH WIND       PRES   REMARKS
TRI CITIES     CLEAR     59  54  83 CALM      30.20S
ELIZABETHTON   SUNNY     63  55  77 E6        30.21S
$$

TNZ012-013-036-069-073-074-200800-
CENTRAL EAST TENNESSEE

CITY           SKY/WX    TMP DP  RH WIND       PRES   REMARKS
KNOXVILLE      CLEAR     65  61  87 N3        30.13
OAK RIDGE      MOCLDY    67  62  84 CALM      30.16S
GATLINBURG     SUNNY     61  57  88 CALM      30.13S
MORRISTOWN     MOSUNNY   64  55  72 E7        30.16F
$$

TNZ083-085-099-200800-
SOUTHEAST TENNESSEE

CITY           SKY/WX    TMP DP  RH WIND       PRES   REMARKS
CHATTANOOGA    CLEAR     70  61  73 S5        30.14S
$$

SKY/WX REPORTED AS FAIR MEANS FEW OR NO CLOUDS BELOW
12 THOUSAND FEET.



USA.gov is the U.S. government's official web portal to all federal, state and local government web resources and services.